| time (UTC) | temp C | wind direction | speed KPH | gust KPH | rain 1hr cm | rain 24hr cm | rain mn cm | humidity % | barometer mb |
| 20260502223107 | 24 | 303 | 4.8 | 12.9 | 0.00 | 0.10 | 0.00 | 43 | 1017.5 |
| 20260502221506 | 24 | 354 | 4.8 | 14.5 | 0.00 | 0.10 | 0.00 | 41 | 1017.6 |
| 20260502220111 | 24 | 4 | 4.8 | 14.5 | 0.00 | 0.10 | 0.00 | 43 | 1017.6 |
| 20260502214514 | 24 | 319 | 6.4 | 12.9 | 0.00 | 0.10 | 0.00 | 39 | 1017.6 |
| 20260502213017 | 23 | 319 | 9.7 | 19.3 | 0.00 | 0.10 | 0.00 | 41 | 1017.5 |
| 20260502211523 | 24 | 245 | 6.4 | 16.1 | 0.00 | 0.10 | 0.00 | 40 | 1017.8 |
| 20260502210017 | 23 | 291 | 4.8 | 12.9 | 0.00 | 0.10 | 0.00 | 41 | 1017.7 |
| 20260502204514 | 23 | 44 | 3.2 | 14.5 | 0.00 | 0.10 | 0.00 | 44 | 1018.1 |
| 20260502203016 | 23 | 316 | 4.8 | 16.1 | 0.00 | 0.10 | 0.00 | 45 | 1018.3 |
| 20260502200106 | 23 | 303 | 3.2 | 11.3 | 0.00 | 0.10 | 0.00 | 45 | 1018.8 |
| 20260502194510 | 23 | 299 | 6.4 | 11.3 | 0.00 | 0.15 | 0.00 | 46 | 1018.9 |
| 20260502193106 | 22 | 247 | 3.2 | 11.3 | 0.00 | 0.15 | 0.00 | 45 | 1019.0 |
| 20260502191606 | 22 | 348 | 1.6 | 14.5 | 0.00 | 0.15 | 0.00 | 47 | 1019.3 |
| 20260502190110 | 22 | 318 | 4.8 | 12.9 | 0.00 | 0.15 | 0.00 | 44 | 1019.4 |
| 20260502184607 | 22 | 132 | 3.2 | 11.3 | 0.00 | 0.23 | 0.00 | 43 | 1019.5 |
| 20260502183011 | 22 | 274 | 3.2 | 12.9 | 0.00 | 0.23 | 0.00 | 44 | 1019.8 |
| 20260502181609 | 22 | 13 | 3.2 | 9.7 | 0.00 | 0.23 | 0.00 | 46 | 1020.0 |
| 20260502180116 | 22 | 330 | 3.2 | 11.3 | 0.00 | 0.23 | 0.00 | 46 | 1020.1 |
| 20260502170105 | 21 | 91 | 1.6 | 11.3 | 0.00 | 0.38 | 0.00 | 50 | 1020.7 |
| 20260502163028 | 20 | 354 | 4.8 | 14.5 | 0.00 | 0.81 | 0.00 | 56 | 1020.6 |
| 20260502161618 | 20 | 48 | 1.6 | 9.7 | 0.00 | 0.81 | 0.00 | 56 | 1020.7 |
| 20260502151516 | 18 | 66 | 4.8 | 12.9 | 0.00 | 1.14 | 0.00 | 59 | 1020.3 |
| 20260502130110 | 14 | 301 | 0.0 | 6.4 | 0.00 | 1.68 | 0.00 | 84 | 1019.4 |
| 20260502123005 | 13 | 328 | 0.0 | 1.6 | 0.00 | 1.98 | 0.00 | 91 | 1018.6 |
| 20260502121608 | 12 | 328 | 0.0 | 1.6 | 0.00 | 1.98 | 0.00 | 91 | 1018.5 |
| 20260502114509 | 12 | 325 | 0.0 | 1.6 | 0.00 | 2.01 | 0.00 | 91 | 1018.0 |
| 20260502113106 | 12 | 325 | 0.0 | 3.2 | 0.00 | 2.01 | 0.00 | 91 | 1017.8 |
| 20260502111515 | 12 | 310 | 0.0 | 1.6 | 0.00 | 2.01 | 0.00 | 90 | 1017.5 |
| 20260502110006 | 12 | 328 | 0.0 | 6.4 | 0.00 | 2.01 | 0.00 | 89 | 1017.3 |
| 20260502104523 | 12 | 346 | 0.0 | 6.4 | 0.00 | 2.01 | 0.00 | 90 | 1017.0 |
| 20260502103114 | 12 | 322 | 0.0 | 3.2 | 0.00 | 2.01 | 0.00 | 89 | 1016.8 |
| 20260502101514 | 13 | 333 | 1.6 | 6.4 | 0.00 | 2.01 | 0.00 | 89 | 1016.8 |
| 20260502090116 | 13 | 354 | 1.6 | 8.0 | 0.00 | 2.01 | 0.00 | 89 | 1016.5 |
| 20260502071520 | 13 | 354 | 0.0 | 8.0 | 0.00 | 2.01 | 0.00 | 91 | 1016.6 |
| 20260502070013 | 13 | 342 | 0.0 | 3.2 | 0.00 | 2.01 | 0.00 | 91 | 1016.3 |
| 20260502064511 | 13 | 298 | 0.0 | 3.2 | 0.00 | 2.01 | 0.00 | 91 | 1016.5 |
| 20260502063016 | 13 | 347 | 0.0 | 4.8 | 0.00 | 2.01 | 0.00 | 91 | 1016.8 |
| 20260502061512 | 13 | 354 | 0.0 | 0.0 | 0.00 | 2.01 | 0.00 | 92 | 1016.7 |
| 20260502060008 | 13 | 359 | 0.0 | 3.2 | 0.00 | 2.01 | 0.00 | 92 | 1016.8 |
| 20260502054611 | 13 | 332 | 0.0 | 1.6 | 0.00 | 2.01 | 0.00 | 93 | 1016.7 |
| 20260502053015 | 13 | 332 | 0.0 | 1.6 | 0.00 | 2.01 | 0.00 | 93 | 1016.7 |
| 20260502051531 | 12 | 328 | 0.0 | 3.2 | 0.00 | 2.01 | 0.00 | 93 | 1016.7 |
| 20260502050010 | 12 | 330 | 0.0 | 3.2 | 0.00 | 2.01 | 2.01 | 94 | 1016.4 |
| 20260502044506 | 12 | 328 | 0.0 | 0.0 | 0.00 | 2.01 | 2.01 | 94 | 1016.1 |
| 20260502043008 | 13 | 328 | 0.0 | 1.6 | 0.00 | 2.01 | 2.01 | 94 | 1016.0 |
| 20260502041619 | 13 | 328 | 0.0 | 0.0 | 0.00 | 2.01 | 2.01 | 94 | 1016.3 |
| 20260502040009 | 13 | 328 | 0.0 | 1.6 | 0.00 | 2.01 | 2.01 | 94 | 1016.4 |
| 20260502034513 | 13 | 328 | 0.0 | 0.0 | 0.00 | 2.01 | 2.01 | 93 | 1016.3 |
| 20260502033004 | 13 | 328 | 0.0 | 0.0 | 0.03 | 2.01 | 2.01 | 93 | 1016.1 |
| 20260502031508 | 13 | 328 | 0.0 | 1.6 | 0.03 | 2.01 | 2.01 | 93 | 1016.1 |
| 20260502030008 | 13 | 319 | 0.0 | 0.0 | 0.03 | 2.01 | 2.01 | 92 | 1016.3 |
| 20260502024611 | 13 | 319 | 0.0 | 0.0 | 0.03 | 2.01 | 2.01 | 92 | 1016.2 |
| 20260502023025 | 13 | 319 | 0.0 | 0.0 | 0.03 | 1.98 | 1.98 | 91 | 1016.4 |
| 20260502020116 | 13 | 326 | 0.0 | 0.0 | 0.05 | 1.98 | 1.98 | 91 | 1015.8 |
| 20260502014516 | 13 | 333 | 0.0 | 0.0 | 0.05 | 1.98 | 1.98 | 91 | 1015.5 |
| 20260502013014 | 13 | 64 | 0.0 | 9.7 | 0.03 | 1.96 | 1.96 | 91 | 1014.7 |
| 20260502011526 | 13 | 10 | 0.0 | 6.4 | 0.03 | 1.96 | 1.96 | 90 | 1014.9 |
| 20260502010011 | 13 | 32 | 0.0 | 0.0 | 0.00 | 1.96 | 1.93 | 90 | 1014.9 |
| 20260502004515 | 13 | 32 | 0.0 | 6.4 | 0.00 | 1.96 | 1.93 | 90 | 1015.0 |
| 20260502003019 | 13 | 8 | 0.0 | 3.2 | 0.03 | 1.96 | 1.93 | 89 | 1014.8 |
| 20260502001505 | 13 | 10 | 0.0 | 6.4 | 0.03 | 1.96 | 1.93 | 89 | 1014.9 |
| 20260502000007 | 13 | 26 | 0.0 | 6.4 | 0.03 | 1.98 | 1.93 | 89 | 1014.6 |
| 20260501234511 | 13 | 18 | 0.0 | 4.8 | 0.03 | 1.98 | 1.93 | 89 | 1014.6 |
| 20260501233019 | 13 | 81 | 0.0 | 6.4 | 0.00 | 1.96 | 1.91 | 88 | 1014.5 |
| 20260501231512 | 14 | 44 | 0.0 | 6.4 | 0.00 | 1.96 | 1.91 | 86 | 1014.6 |
| 20260501230120 | 14 | 12 | 0.0 | 6.4 | 0.00 | 1.96 | 1.91 | 85 | 1014.7 |